Terminal Aerodrome Forecast
Issued by NWS

Home | Current Version | Previous Version | Text Only | Print | Product List | Glossary On
Versions: 1 2 3 4 5 6 7 8 9 10 11 12
737
FTUS45 KPSR 072322
TAFBLH
TAF
KBLH 072322Z 0800/0824 35012KT P6SM SKC
     FM080700 33008KT P6SM SKC=

USA.gov is the U.S. government's official web portal to all federal, state and local government web resources and services.